Location: Asheville, NC
(35.6000°N, 82.5500°W)
Time: 08:53:36
(UTC-05:00)

Vanguard 3 - Pass Details

Date: 18 February 2018
Orbit: 508 x 3264 km, 33.3° (Epoch: 19 February)

Event Time Altitude Azimuth Distance (km) Brightness Sun altitude
Rises 19:46:12 0° 272° (W) 2,598 11.4 -19.2°
Reaches altitude 10° 19:48:13 10° 267° (W) 1,756 10.1 -19.6°
Maximum altitude 19:51:54 51° 190° (S) 761 7.0 -20.3°
Enters shadow 19:53:16 37° 139° (SE) 1,008 7.3 -20.6°
